• In Deutschland
  • Länderverzeichnis
  • Für 7 Tage
  • Wassertemperatur
  • Satellitenkarten
  • Wetterkarte
  • Widgets
  • user-avatar
    Anmelden

    Stündliche Wetter Quibdó

    Heute, 17 August, Donnerstag

    Zeit Temperatur Niederschläge Wind Luftdruck Luftfeuchtigkeit
    00:00 +24°C° 0,7 mm 0 m/S 751 mmHg 95%
    01:00 +23°C° 0 mm 0 m/S 751 mmHg 96%
    02:00 +23°C° 0,1 mm 0 m/S 751 mmHg 95%
    03:00 +23°C° 0,1 mm 0 m/S 751 mmHg 95%
    04:00 +23°C° 0,1 mm 0 m/S 751 mmHg 95%
    05:00 +23°C° 0 mm 0 m/S 751 mmHg 94%
    06:00 +24°C° 0 mm 0 m/S 751 mmHg 92%
    07:00 +24°C° 0 mm 0 m/S 751 mmHg 90%
    08:00 +26°C° 0 mm 0 m/S 751 mmHg 83%
    09:00 +30°C° 0 mm 1 m/S 751 mmHg 76%
    10:00 +32°C° 0 mm 1 m/S 750 mmHg 69%
    11:00 +33°C° 0,1 mm 1 m/S 750 mmHg 66%
    12:00 +33°C° 0,1 mm 1 m/S 749 mmHg 64%
    13:00 +34°C° 0,1 mm 1 m/S 748 mmHg 61%
    14:00 +34°C° 0,7 mm 2 m/S 748 mmHg 66%
    15:00 +32°C° 0,7 mm 2 m/S 748 mmHg 71%
    16:00 +31°C° 0,7 mm 2 m/S 747 mmHg 77%
    17:00 +30°C° 1,3 mm 1 m/S 748 mmHg 82%
    18:00 +28°C° 1,3 mm 1 m/S 749 mmHg 88%
    19:00 +27°C° 1,3 mm 1 m/S 749 mmHg 93%
    20:00 +27°C° 1,2 mm 1 m/S 750 mmHg 94%
    21:00 +24°C° 1,2 mm 0 m/S 750 mmHg 94%
    22:00 +24°C° 1,2 mm 0 m/S 751 mmHg 95%
    23:00 +24°C° 0,7 mm 0 m/S 751 mmHg 95%

    Morgen, 18 August, Freitag

    Zeit Temperatur Niederschläge Wind Luftdruck Luftfeuchtigkeit
    00:00 +24°C° 0,7 mm 0 m/S 751 mmHg 95%
    01:00 +24°C° 0,7 mm 0 m/S 751 mmHg 94%
    02:00 +23°C° 0,8 mm 0 m/S 750 mmHg 94%
    03:00 +23°C° 0,8 mm 0 m/S 750 mmHg 94%
    04:00 +23°C° 0,8 mm 0 m/S 750 mmHg 94%
    05:00 +24°C° 0,2 mm 0 m/S 750 mmHg 93%
    06:00 +24°C° 0,2 mm 0 m/S 750 mmHg 93%
    07:00 +24°C° 0,2 mm 0 m/S 751 mmHg 92%
    08:00 +28°C° 0,3 mm 1 m/S 751 mmHg 87%
    09:00 +29°C° 0,3 mm 1 m/S 751 mmHg 82%
    10:00 +31°C° 0,3 mm 1 m/S 751 mmHg 76%
    11:00 +31°C° 0,7 mm 1 m/S 750 mmHg 77%
    12:00 +31°C° 0,7 mm 1 m/S 750 mmHg 77%
    13:00 +31°C° 0,7 mm 2 m/S 749 mmHg 78%
    14:00 +31°C° 1,5 mm 2 m/S 749 mmHg 82%
    15:00 +30°C° 1,5 mm 1 m/S 748 mmHg 86%
    16:00 +29°C° 1,5 mm 1 m/S 748 mmHg 90%
    17:00 +28°C° 2,2 mm 1 m/S 748 mmHg 92%
    18:00 +27°C° 2,2 mm 1 m/S 749 mmHg 94%
    19:00 +26°C° 2,2 mm 1 m/S 749 mmHg 96%
    20:00 +26°C° 2,8 mm 1 m/S 750 mmHg 96%
    21:00 +26°C° 2,8 mm 1 m/S 750 mmHg 96%
    22:00 +24°C° 2,8 mm 0 m/S 751 mmHg 96%
    23:00 +24°C° 1,4 mm 0 m/S 751 mmHg 96%

    übermorgen, 19 August, Samstag

    Zeit Temperatur Niederschläge Wind Luftdruck Luftfeuchtigkeit
    00:00 +23°C° 1,4 mm 0 m/S 751 mmHg 96%
    01:00 +23°C° 1,4 mm 0 m/S 751 mmHg 96%
    02:00 +23°C° 1 mm 0 m/S 750 mmHg 96%
    03:00 +23°C° 1 mm 0 m/S 750 mmHg 96%
    04:00 +23°C° 1 mm 0 m/S 750 mmHg 96%
    05:00 +23°C° 0,9 mm 0 m/S 750 mmHg 95%
    06:00 +23°C° 0,9 mm 0 m/S 750 mmHg 95%
    07:00 +23°C° 0,9 mm 0 m/S 751 mmHg 95%
    08:00 +26°C° 1,2 mm 1 m/S 751 mmHg 94%
    09:00 +27°C° 1,2 mm 1 m/S 751 mmHg 92%
    10:00 +27°C° 1,2 mm 1 m/S 752 mmHg 91%
    11:00 +27°C° 1,3 mm 1 m/S 751 mmHg 90%
    12:00 +27°C° 1,3 mm 1 m/S 750 mmHg 89%
    13:00 +28°C° 1,3 mm 1 m/S 750 mmHg 88%
    14:00 +28°C° 0,4 mm 1 m/S 749 mmHg 88%
    15:00 +28°C° 0,4 mm 1 m/S 749 mmHg 88%
    16:00 +28°C° 0,4 mm 1 m/S 748 mmHg 88%
    17:00 +27°C° 0,2 mm 1 m/S 749 mmHg 91%
    18:00 +24°C° 0,2 mm 0 m/S 749 mmHg 94%
    19:00 +23°C° 0,2 mm 0 m/S 750 mmHg 97%
    20:00 +23°C° 0,1 mm 0 m/S 750 mmHg 96%
    21:00 +23°C° 0,1 mm 0 m/S 751 mmHg 96%
    22:00 +23°C° 0,1 mm 0 m/S 751 mmHg 95%
    23:00 +23°C° 0,2 mm 0 m/S 751 mmHg 95%

    20 August, Sonntag

    Zeit Temperatur Niederschläge Wind Luftdruck Luftfeuchtigkeit
    00:00 +23°C° 0,2 mm 0 m/S 751 mmHg 94%
    01:00 +23°C° 0,2 mm 0 m/S 750 mmHg 93%
    02:00 +23°C° 0,3 mm 0 m/S 750 mmHg 93%
    03:00 +23°C° 0,3 mm 0 m/S 750 mmHg 93%
    04:00 +22°C° 0,3 mm 0 m/S 750 mmHg 93%
    05:00 +23°C° 0,1 mm 0 m/S 750 mmHg 92%
    06:00 +23°C° 0,1 mm 0 m/S 750 mmHg 91%
    07:00 +23°C° 0,1 mm 0 m/S 751 mmHg 91%
    08:00 +27°C° 0 mm 1 m/S 751 mmHg 84%
    09:00 +29°C° 0 mm 1 m/S 751 mmHg 78%
    10:00 +30°C° 0 mm 1 m/S 751 mmHg 72%
    11:00 +31°C° 0,3 mm 1 m/S 750 mmHg 71%
    12:00 +32°C° 0,3 mm 1 m/S 750 mmHg 69%
    13:00 +33°C° 0,3 mm 1 m/S 749 mmHg 68%
    14:00 +31°C° 1,2 mm 1 m/S 748 mmHg 75%
    15:00 +30°C° 1,2 mm 1 m/S 748 mmHg 82%
    16:00 +29°C° 1,2 mm 1 m/S 747 mmHg 89%
    17:00 +28°C° 1,6 mm 1 m/S 748 mmHg 91%
    18:00 +27°C° 1,6 mm 1 m/S 749 mmHg 94%
    19:00 +26°C° 1,6 mm 1 m/S 750 mmHg 97%
    20:00 +24°C° 1,5 mm 0 m/S 750 mmHg 96%
    21:00 +23°C° 1,5 mm 0 m/S 751 mmHg 96%
    22:00 +23°C° 1,5 mm 0 m/S 751 mmHg 96%
    23:00 +23°C° 0,7 mm 0 m/S 751 mmHg 96%

    21 August, Montag

    Zeit Temperatur Niederschläge Wind Luftdruck Luftfeuchtigkeit
    00:00 +23°C° 0,7 mm 0 m/S 751 mmHg 96%
    01:00 +23°C° 0,7 mm 0 m/S 751 mmHg 96%
    02:00 +23°C° 0,2 mm 0 m/S 751 mmHg 95%
    03:00 +23°C° 0,2 mm 0 m/S 750 mmHg 95%
    04:00 +23°C° 0,2 mm 0 m/S 750 mmHg 95%
    05:00 +23°C° 0 mm 0 m/S 751 mmHg 94%
    06:00 +23°C° 0 mm 0 m/S 751 mmHg 93%
    07:00 +23°C° 0 mm 0 m/S 752 mmHg 92%
    08:00 +25°C° 0 mm 0 m/S 752 mmHg 86%
    09:00 +29°C° 0 mm 1 m/S 752 mmHg 79%
    10:00 +31°C° 0 mm 1 m/S 752 mmHg 73%
    11:00 +32°C° 0,1 mm 1 m/S 751 mmHg 70%
    12:00 +32°C° 0,1 mm 1 m/S 750 mmHg 67%
    13:00 +34°C° 0,1 mm 2 m/S 749 mmHg 64%
    14:00 +32°C° 0,8 mm 1 m/S 749 mmHg 71%
    15:00 +31°C° 0,8 mm 1 m/S 748 mmHg 77%
    16:00 +30°C° 0,8 mm 1 m/S 748 mmHg 83%
    17:00 +29°C° 1,2 mm 1 m/S 749 mmHg 87%
    18:00 +28°C° 1,2 mm 1 m/S 750 mmHg 91%
    19:00 +26°C° 1,2 mm 1 m/S 750 mmHg 95%
    20:00 +24°C° 0,8 mm 0 m/S 751 mmHg 95%
    21:00 +24°C° 0,8 mm 0 m/S 752 mmHg 95%
    22:00 +24°C° 0,8 mm 0 m/S 752 mmHg 95%
    23:00 +23°C° 0,1 mm 0 m/S 752 mmHg 95%

    22 August, Dienstag

    Zeit Temperatur Niederschläge Wind Luftdruck Luftfeuchtigkeit
    00:00 +23°C° 0,1 mm 0 m/S 752 mmHg 95%
    01:00 +23°C° 0,1 mm 0 m/S 751 mmHg 94%
    02:00 +23°C° 0 mm 0 m/S 751 mmHg 94%
    03:00 +23°C° 0 mm 0 m/S 751 mmHg 93%
    04:00 +23°C° 0 mm 0 m/S 751 mmHg 92%
    05:00 +23°C° 0 mm 0 m/S 751 mmHg 91%
    06:00 +23°C° 0 mm 0 m/S 751 mmHg 90%
    07:00 +24°C° 0 mm 0 m/S 752 mmHg 89%
    08:00 +27°C° 0 mm 1 m/S 752 mmHg 84%
    09:00 +29°C° 0 mm 1 m/S 752 mmHg 79%
    10:00 +30°C° 0 mm 1 m/S 752 mmHg 74%
    11:00 +31°C° 0,1 mm 1 m/S 751 mmHg 72%
    12:00 +32°C° 0,1 mm 1 m/S 750 mmHg 69%
    13:00 +34°C° 0,1 mm 2 m/S 750 mmHg 66%
    14:00 +32°C° 1,4 mm 2 m/S 749 mmHg 73%
    15:00 +31°C° 1,4 mm 2 m/S 749 mmHg 80%
    16:00 +29°C° 1,4 mm 1 m/S 749 mmHg 87%
    17:00 +28°C° 2,5 mm 1 m/S 749 mmHg 90%
    18:00 +27°C° 2,5 mm 1 m/S 750 mmHg 93%
    19:00 +26°C° 2,5 mm 1 m/S 751 mmHg 95%
    20:00 +26°C° 3,3 mm 1 m/S 751 mmHg 95%
    21:00 +26°C° 3,3 mm 1 m/S 752 mmHg 95%
    22:00 +26°C° 3,3 mm 1 m/S 752 mmHg 95%
    23:00 +25°C° 2,1 mm 1 m/S 752 mmHg 95%
    Mehr zeigen